Change the Weather History Date:

Monday, May 27, 2013

  Actual Average Record
Temperature  
Mean Temperature 68 °F 67 °F  
Max Temperature 73 °F 77 °F 92 °F (1911)
Min Temperature 62 °F 57 °F 39 °F (1961)
Degree Days  
Heating Degree Days 0 2  
Month to date heating degree days 135 103  
Since 1 July heating degree days 4896 5006  
Cooling Degree Days 3 4  
Month to date cooling degree days 78 61  
Year to date cooling degree days 100 86  
Growing Degree Days 16 (Base 50)    
Moisture  
Dew Point 63 °F    
Average Humidity 83    
Maximum Humidity 93    
Minimum Humidity 73    
Precipitation  
Precipitation 1.41 in 0.16 in 2.08 in (1996)
Month to date precipitation 4.49 4.36  
Year to date precipitation 21.41 15.93  
Snow  
Snow 0.00 in 0.00 in 0.00 in (2012)
Month to date snowfall T 0.0  
Since 1 July snowfall 35.0 18.0  
Snow Depth 0.00 in    
Sea Level Pressure  
Sea Level Pressure 29.89 in    
Wind  
Wind Speed 10 mph (SSE)    
Max Wind Speed 30 mph    
Max Gust Speed 39 mph    
Visibility 8 miles    
Events Fog , Rain , Thunderstorm    
T = Trace of Precipitation, MM = Missing Value Source: NWS Daily Summary

Daily Weather History Graph

Daily Weather History Graph

Search for Another Location

Airport or City:

Trip Planner

Search our weather history database for the weather conditions in past years. The results will help you decide how hot, cold, wet, or windy it might be!

Date:

Astronomy

May. 27, 2013 Rise Set
Actual Time 5:47 AM CDT 8:24 PM CDT
Civil Twilight 5:16 AM CDT 8:55 PM CDT
Nautical Twilight 4:38 AM CDT 9:34 PM CDT
Astronomical Twilight 3:55 AM CDT 10:17 PM CDT
Moon 11:05 PM CDT (5/27) 8:25 AM CDT (5/27)
Length of Visible Light 15h 38m
Length of Day
14h 36m
Waning Gibbous, 91% of the Moon is Illuminated
May 27
Waning Gibbous
May 31
Last Quarter
Jun 8
New
Jun 16
First Quarter
Jun 23
Full

Hourly Weather History & Observations

Time (CDT) Temp. Dew Point Humidity Pressure Visibility Wind Dir Wind Speed Gust Speed Precip Events Conditions
12:54 AM 73.0 °F 64.9 °F 76% 29.98 in 10.0 mi SSW 12.7 mph - N/A   Mostly Cloudy
1:29 AM 69.1 °F 59.0 °F 70% 30.04 in 10.0 mi WNW 19.6 mph 31.1 mph 0.00 in Rain Light Rain
1:45 AM 64.0 °F 60.1 °F 87% 30.02 in 4.0 mi NW 12.7 mph 27.6 mph 0.01 in Rain , Thunderstorm Heavy Rain
1:54 AM 63.0 °F 61.0 °F 93% 30.00 in 4.0 mi WSW 11.5 mph - 0.12 in Rain , Thunderstorm Thunderstorms and Rain
2:39 AM 63.0 °F 61.0 °F 93% 30.00 in 10.0 mi SSW 12.7 mph - 0.01 in Rain Light Rain
2:54 AM 63.0 °F 61.0 °F 93% 29.96 in 10.0 mi South 8.1 mph - 0.01 in   Mostly Cloudy
3:54 AM 63.0 °F 61.0 °F 93% 29.95 in 10.0 mi SSW 11.5 mph - 0.00 in Rain Light Rain
4:54 AM 63.0 °F 61.0 °F 93% 29.94 in 10.0 mi South 3.5 mph - 0.00 in   Overcast
5:54 AM 63.0 °F 60.1 °F 90% 29.92 in 10.0 mi South 12.7 mph - N/A   Clear
6:54 AM 64.0 °F 60.1 °F 87% 29.93 in 10.0 mi South 10.4 mph - N/A   Clear
7:54 AM 68.0 °F 63.0 °F 84% 29.93 in 10.0 mi South 12.7 mph - N/A   Clear
8:54 AM 70.0 °F 64.9 °F 84% 29.92 in 10.0 mi South 12.7 mph - N/A   Scattered Clouds
9:54 AM 71.1 °F 66.0 °F 84% 29.88 in 10.0 mi SSE 11.5 mph - N/A   Clear
10:54 AM 71.1 °F 66.9 °F 87% 29.89 in 10.0 mi SSE 8.1 mph - N/A   Clear
11:54 AM 71.1 °F 66.9 °F 87% 29.90 in 10.0 mi SSE 8.1 mph - N/A Thunderstorm Thunderstorm
12:14 PM 70.0 °F 64.9 °F 84% 29.91 in 9.0 mi North 19.6 mph 25.3 mph 0.00 in Rain , Thunderstorm Light Thunderstorms and Rain
12:22 PM 68.0 °F 64.9 °F 90% 29.94 in 1.8 mi NNW 23.0 mph 31.1 mph 0.01 in Rain , Thunderstorm Heavy Thunderstorms and Rain
12:30 PM 66.0 °F 64.0 °F 93% 29.94 in 0.5 mi North 19.6 mph - 0.18 in Fog , Rain , Thunderstorm Heavy Thunderstorms and Rain
12:45 PM 66.0 °F 64.0 °F 93% 29.95 in 2.0 mi North 9.2 mph - 0.75 in Rain , Thunderstorm Thunderstorms and Rain
12:52 PM 66.2 °F 64.4 °F 94% 29.95 in 3.0 mi NNW 5.8 mph - 0.79 in Rain , Thunderstorm Thunderstorms and Rain
12:54 PM 66.0 °F 64.0 °F 93% 29.93 in 3.0 mi NW 5.8 mph - 0.81 in Rain , Thunderstorm Thunderstorms and Rain
1:02 PM 66.0 °F 64.0 °F 93% 29.95 in 7.0 mi WNW 6.9 mph - 0.03 in Rain , Thunderstorm Light Thunderstorms and Rain
1:42 PM 64.9 °F 64.0 °F 97% 29.99 in 4.0 mi NW 10.4 mph - 0.06 in Rain , Thunderstorm Light Thunderstorms and Rain
1:50 PM 64.4 °F 64.4 °F 100% 29.98 in 1.5 mi NNW 10.4 mph - 0.16 in Rain , Thunderstorm Light Thunderstorms and Rain
1:54 PM 64.9 °F 63.0 °F 93% 29.97 in 1.2 mi North 11.5 mph - 0.22 in Rain , Thunderstorm Light Thunderstorms and Rain
1:58 PM 64.9 °F 63.0 °F 93% 29.97 in 2.0 mi North 11.5 mph - 0.08 in Rain , Thunderstorm Light Thunderstorms and Rain
2:33 PM 64.9 °F 63.0 °F 93% 29.91 in 8.0 mi NE 8.1 mph - 0.20 in Rain , Thunderstorm Light Thunderstorms and Rain
2:54 PM 64.9 °F 63.0 °F 93% 29.87 in 8.0 mi SE 11.5 mph - 0.23 in Rain , Thunderstorm Light Thunderstorms and Rain
3:05 PM 64.9 °F 63.0 °F 93% 29.85 in 10.0 mi South 16.1 mph - 0.02 in Rain , Thunderstorm Light Thunderstorms and Rain
3:20 PM 64.9 °F 63.0 °F 93% 29.77 in 10.0 mi SSE 27.6 mph 35.7 mph 0.02 in Rain Light Rain
3:46 PM 64.9 °F 63.0 °F 93% 29.79 in 10.0 mi ESE 13.8 mph - 0.02 in   Mostly Cloudy
3:54 PM 64.9 °F 63.0 °F 93% 29.77 in 10.0 mi ESE 13.8 mph - 0.02 in   Mostly Cloudy
4:40 PM 66.9 °F 64.0 °F 90% 29.82 in 10.0 mi SE 8.1 mph - N/A   Scattered Clouds
4:54 PM 68.0 °F 64.0 °F 87% 29.80 in 10.0 mi SE 9.2 mph - N/A   Clear
5:54 PM 69.1 °F 64.0 °F 84% 29.80 in 10.0 mi SE 12.7 mph - N/A   Clear
6:54 PM 69.1 °F 64.9 °F 87% 29.76 in 10.0 mi SE 11.5 mph - N/A   Clear
7:54 PM 68.0 °F 64.9 °F 90% 29.77 in 10.0 mi ESE 6.9 mph - N/A   Clear
8:54 PM 66.9 °F 64.9 °F 93% 29.78 in 10.0 mi East 5.8 mph - N/A   Partly Cloudy
9:54 PM 68.0 °F 64.9 °F 90% 29.79 in 10.0 mi ESE 6.9 mph - N/A   Mostly Cloudy
10:54 PM 68.0 °F 64.9 °F 90% 29.82 in 10.0 mi ESE 9.2 mph - N/A   Scattered Clouds
11:54 PM 68.0 °F 64.0 °F 87% 29.82 in 10.0 mi SE 9.2 mph - N/A   Overcast